Regional Weather Roundup
Issued by NWS Portland, ME

Current Version | Previous Version | Text Only | Print | Product List | Glossary Off
Versions: 1 2 3 4 5 6 7 8 9 10 11 12 13 14 15 16 17 18 19 20 21 22 23 24 25 26 27 28 29 30 31 32 33 34 35 36 37 38 39 40 41 42 43 44 45 46 47 48 49 50
000 ASUS41 KGYX 231705 RWRGYX WEATHER ROUNDUP FOR MAINE AND NEW HAMPSHIRE NATIONAL WEATHER SERVICE GRAY ME 100 PM EDT TUE JUL 23 2019 MEZ002-005-006-010-012-015-018-020-021-024-026-027-029-231800- MAINE CITY SKY/WX TMP DP RH WIND PRES REMARKS PORTLAND CLOUDY 64 56 75 N5 29.85F SANFORD PTSUNNY 63 58 83 E3 29.86F BAR HARBOR FAIR 66 61 84 CALM 29.84R WISCASSET CLOUDY 65 60 84 CALM 29.86S ROCKLAND LGT RAIN 65 59 81 NE3 29.84S FRYEBURG CLOUDY 67 56 67 CALM 29.87S LEWISTONAUBURN CLOUDY 64 58 80 W5 29.86S AUGUSTA LGT RAIN 64 59 83 NW6 29.86R WATERVILLE LGT RAIN 65 57 75 VRB3 29.84R BANGOR CLOUDY 66 54 65 NW3 29.84R GREENVILLE N/A 66 51 58 CALM 29.84S MILLINOCKET FAIR 69 54 58 CALM 29.84S HOULTON FAIR 68 51 54 W3 29.80F PRESQUE ISLE FAIR 70 51 51 CALM 29.82F FRENCHVILLE FAIR 68 52 56 VRB3 29.81F CARIBOU FAIR 71 52 50 SW5 29.80F $$ NHZ002-005-008-009-011-012-014-231800- NEW HAMPSHIRE CITY SKY/WX TMP DP RH WIND PRES REMARKS ROCHESTER CLOUDY 64 58 80 CALM 29.86R NASHUA CLOUDY 64 62 93 N9 29.87R MANCHESTER CLOUDY 66 58 75 N9 29.85S CONCORD CLOUDY 65 56 72 E5 29.87S LACONIA CLOUDY 64 55 72 CALM 29.88S PLYMOUTH PTSUNNY 67 58 73 CALM 29.86F BERLIN FAIR 68 52 56 CALM 29.87F WHITEFIELD FAIR 67 54 63 VRB3 29.87F JAFFREY CLOUDY 64 58 80 VRB5 29.88F KEENE CLOUDY 65 58 78 CALM 29.87S LEBANON PTSUNNY 71 56 58 NW5 29.86S MT WASHINGTON PTSUNNY 45 37 76 N12 N/A $$ VTZ005-007-008-231800- VERMONT CITY SKY/WX TMP DP RH WIND PRES REMARKS ST JOHNSBURY N/A 71 53 52 MISG 29.85S MONTPELIER FAIR 70 56 61 VRB7 29.91S BURLINGTON FAIR 77 51 40 VRB5 29.85S $$ MAZ007-012-024-CTZ003-RIZ002-NYZ038-NYZ072-231800- SOUTHERN NEW ENGLAND AND NY CITY SKY/WX TMP DP RH WIND PRES REMARKS BOSTON PTSUNNY 65 58 78 N16 29.84R WORCESTER CLOUDY 61 58 90 NE9 29.86R NANTUCKET LGT RAIN 72 70 93 SW18 29.73R FOG PROVIDENCE CLOUDY 65 61 87 N20G30 29.82R HARTFORD CLOUDY 70 63 78 N8 29.83S ALBANY PTSUNNY 74 59 59 NW6 29.87F NEW YORK CITY CLOUDY 73 62 68 N13 29.81F $$ ANZ081-ANZ082-ANZ150-NHZ014-MEZ023>029-231800- COASTAL MARINE OBSERVATIONS STATION/POSITION TIME TEMP WIND PRES WAVE AIR SEA DIR/SP/G HT/PER (UTC) (F) (DEG/KT/KT) (MB) (FT/S) ISLE OF SHOALS 1600 61 10/ 16/ 18 1010.3R JEFFREYS LEDGE 1638 67 N/A 5/ 5 CASHES LEDGE BUO 1650 57 59 20/ 14/ 16 1010.2F 2/ 7 GEORGES BANK BUO 1640 66 62 190/ 8/ 10 1010.2F $$ .............KEY.............. WCI - WIND CHILL TC - TEMPERATURE IN CELSIUS VSB - VISIBILITY IN MILES HX - HEAT INDEX FAIR- INDICATES FEW OR NO CLOUDS BELOW 12,000 FT, WITH NO SIGNIFICANT WEATHER AND/OR OBSTRUCTIONS TO VISIBILITY.

USA.gov is the U.S. government's official web portal to all federal, state and local government web resources and services.